This demonstration page uses our WeatherBlox Daily Observations layout. Learn more.

Left ArrowRight Arrow

40.92945, -100.16068

Hourly Observations for December 9, 2020

Temp ( °F °C ) Dew Point ( °F °C ) Humidity (%) Winds ( mph kmh ) Pressure ( in mb ) Visibility ( mi km ) Precip ( " mm )
12:15 am 00:15 Clear 37 2.5 17 -8.5 44 44 W 9 15 30.12 1020 10 16.0934 0 0
12:35 am 00:35 Clear 37 2.6 16 -8.7 43 43 WNW 12 19 30.12 1020 10 16.0934 0 0
12:55 am 00:55 Clear 39 3.7 16 -8.8 40 40 WNW 12 19 30.11 1020 10 16.0934 0 0
1:15 am 01:15 Clear 39 4 16 -9 39 39 WNW 10 17 30.1 1019 10 16.0934 0 0
1:35 am 01:35 Clear 37 2.6 16 -8.8 43 43 WNW 12 19 30.11 1020 10 16.0934 0 0
1:55 am 01:55 Clear 36 2.3 16 -8.7 44 44 WNW 9 15 30.11 1020 10 16.0934 0 0
2:15 am 02:15 Clear 38 3.4 16 -8.8 41 41 WNW 12 19 30.11 1020 10 16.0934 0 0
2:35 am 02:35 Clear 37 2.6 16 -8.8 43 43 W 13 20 30.12 1020 10 16.0934 0 0
2:55 am 02:55 Clear 38 3.3 16 -8.9 41 41 WNW 13 20 30.12 1020 10 16.0934 0 0
3:15 am 03:15 Clear 38 3.4 16 -9 40 40 W 10 17 30.12 1020 10 16.0934 0 0
3:35 am 03:35 Clear 35 1.9 16 -8.8 45 45 W 9 15 30.15 1021 10 16.0934 0 0
3:55 am 03:55 Clear 34 0.9 16 -8.7 49 49 W 10 17 30.15 1021 10 16.0934 0 0
4:15 am 04:15 Clear 34 1 17 -8.6 49 49 W 10 17 30.15 1021 10 16.0934 0 0
4:35 am 04:35 Clear 33 0.7 16 -8.7 50 50 W 10 17 30.16 1021 10 16.0934 0 0
4:55 am 04:55 Clear 33 0.5 16 -8.7 51 51 W 9 15 30.16 1021 10 16.0934 0 0
5:15 am 05:15 Clear 33 0.6 17 -8.5 51 51 WNW 9 15 30.15 1021 10 16.0934 0 0
5:35 am 05:35 Clear 34 1 17 -8.5 50 50 WNW 9 15 30.16 1021 10 16.0934 0 0
5:55 am 05:55 Clear 34 1.1 17 -8.5 49 49 WNW 10 17 30.15 1021 10 16.0934 0 0
6:15 am 06:15 Clear 33 0.5 17 -8.3 52 52 WNW 9 15 30.16 1021 10 16.0934 0 0
6:35 am 06:35 Clear 33 0.5 17 -8.3 52 52 WNW 7 11 30.15 1021 10 16.0934 0 0
6:55 am 06:55 Clear 34 1.1 17 -8.3 50 50 WNW 8 13 30.16 1021 10 16.0934 0 0
7:15 am 07:15 Clear 35 1.5 17 -8.1 49 49 WNW 9 15 30.15 1021 10 16.0934 0 0
7:35 am 07:35 Clear 34 1.3 17 -8.3 49 49 WNW 8 13 30.16 1021 10 16.0934 0 0
7:55 am 07:55 Sunny 35 1.4 18 -8 50 50 W 10 17 30.16 1021 10 16.0934 0 0
8:15 am 08:15 Sunny 37 2.5 17 -8.3 45 45 WNW 12 19 30.15 1021 10 16.0934 0 0
8:35 am 08:35 Sunny 37 2.8 18 -8 45 45 WNW 10 17 30.15 1021 10 16.0934 0 0
8:55 am 08:55 Sunny 38 3.4 18 -7.7 44 44 WNW 12 19 30.14 1021 10 16.0934 0 0
9:15 am 09:15 Sunny 40 4.4 18 -7.6 42 42 WNW 10 17 30.13 1020 10 16.0934 0 0
9:35 am 09:35 Sunny 42 5.6 19 -7 40 40 NW 12 19 30.12 1020 10 16.0934 0 0
9:55 am 09:55 Sunny 45 7 19 -7 37 37 WNW 8 13 30.11 1020 10 16.0934 0 0
10:15 am 10:15 Sunny 47 8.3 20 -6.6 34 34 NW 8 13 30.11 1020 10 16.0934 0 0
10:35 am 10:35 Sunny 49 9.4 21 -6.3 33 33 WNW 8 13 30.09 1019 10 16.0934 0 0
10:55 am 10:55 Sunny 51 10.6 21 -5.9 31 31 WNW 8 13 30.08 1018 10 16.0934 0 0
11:15 am 11:15 Sunny 53 11.8 22 -5.6 29 29 WNW 7 11 30.06 1018 10 16.0934 0 0
11:35 am 11:35 Sunny 56 13.1 23 -5.2 28 28 WNW 7 11 30.04 1017 10 16.0934 0 0
11:55 am 11:55 Sunny 58 14.3 23 -5.1 26 26 W 5 7 30.02 1017 10 16.0934 0 0
12:15 pm 12:15 Sunny 61 15.9 24 -4.7 24 24 SW 5 7 30.01 1016 10 16.0934 0 0
12:35 pm 12:35 Sunny 61 16.1 23 -4.9 23 23 W 3 6 29.99 1015 10 16.0934 0 0
12:55 pm 12:55 Sunny 63 17 24 -4.4 23 23 Calm 29.97 1015 10 16.0934 0 0
1:15 pm 13:15 Sunny 64 17.7 25 -3.9 23 23 WNW 3 6 29.94 1014 10 16.0934 0 0
1:35 pm 13:35 Sunny 65 18.6 26 -3.1 23 23 W 3 6 29.92 1013 10 16.0934 0 0
1:55 pm 13:55 Sunny 67 19.4 27 -3 22 22 Calm 29.91 1013 10 16.0934 0 0
2:15 pm 14:15 Sunny 68 19.9 28 -2.5 22 22 SSW 5 7 29.89 1012 10 16.0934 0 0
2:35 pm 14:35 Sunny 68 20.2 28 -2.1 22 22 SSW 6 9 29.89 1012 10 16.0934 0 0
2:55 pm 14:55 Sunny 69 20.4 28 -2.5 21 21 SSW 9 15 29.89 1012 10 16.0934 0 0
3:15 pm 15:15 Sunny 68 20 26 -3.3 21 21 SSW 9 15 29.88 1012 10 16.0934 0 0
3:35 pm 15:35 Sunny 68 20 26 -3.2 21 21 SSW 8 13 29.88 1012 10 16.0934 0 0
3:55 pm 15:55 Sunny 67 19.6 26 -3.5 21 21 SSW 7 11 29.89 1012 10 16.0934 0 0
4:15 pm 16:15 Sunny 66 19 26 -3.3 22 22 S 6 9 29.88 1012 10 16.0934 0 0
4:35 pm 16:35 Sunny 64 17.6 27 -3 25 25 S 6 9 29.89 1012 10 16.0934 0 0
4:55 pm 16:55 Sunny 60 15.7 27 -3 28 28 S 6 9 29.91 1013 7 11.26538 0 0
5:15 pm 17:15 Clear 58 14.5 26 -3.5 29 29 SSE 5 7 29.92 1013 10 16.0934 0 0
5:35 pm 17:35 Clear 57 14 26 -3.4 30 30 SSE 6 9 29.91 1013 10 16.0934 0 0
5:55 pm 17:55 Clear 54 12.3 25 -4.1 32 32 SSE 6 9 29.93 1014 7 11.26538 0 0
6:15 pm 18:15 Clear 49 9.5 24 -4.7 37 37 SSE 7 11 29.96 1014 10 16.0934 0 0
6:35 pm 18:35 Clear 49 9.2 24 -4.7 37 37 S 6 9 29.96 1015 10 16.0934 0 0
6:55 pm 18:55 Clear 50 9.8 24 -4.6 36 36 S 6 9 29.94 1014 10 16.0934 0 0
7:15 pm 19:15 Clear 46 7.8 23 -4.8 41 41 S 6 9 29.96 1015 7 11.26538 0 0
7:35 pm 19:35 Clear 46 8 23 -4.9 40 40 SSE 7 11 29.97 1015 10 16.0934 0 0
7:55 pm 19:55 Clear 46 8 23 -5 40 40 S 7 11 29.96 1015 10 16.0934 0 0
8:15 pm 20:15 Clear 46 7.7 23 -5 41 41 SSE 7 11 29.96 1015 10 16.0934 0 0
8:35 pm 20:35 Clear 46 7.8 23 -4.8 41 41 S 9 15 29.96 1015 10 16.0934 0 0
8:55 pm 20:55 Clear 43 6.2 23 -5.2 44 44 S 9 15 29.97 1015 10 16.0934 0 0
9:15 pm 21:15 Clear 43 5.9 23 -5 46 46 S 8 13 29.97 1015 10 16.0934 0 0
9:35 pm 21:35 Clear 44 6.7 23 -5 43 43 S 6 9 29.95 1014 10 16.0934 0 0
9:55 pm 21:55 Clear 40 4.5 23 -5.2 50 50 SSW 8 13 29.97 1015 10 16.0934 0 0
10:15 pm 22:15 Clear 45 7.2 24 -4.7 43 43 SSW 14 22 29.94 1014 10 16.0934 0 0
10:35 pm 22:35 Clear 46 7.9 23 -4.9 40 40 S 14 22 29.92 1013 10 16.0934 0 0
10:55 pm 22:55 Clear 46 7.5 23 -5 41 41 S 9 15 29.92 1013 10 16.0934 0 0
11:15 pm 23:15 Clear 43 6.3 23 -4.9 45 45 S 9 15 29.94 1014 10 16.0934 0 0
11:35 pm 23:35 Clear 42 5.6 23 -4.8 47 47 S 6 9 29.94 1014 10 16.0934 0 0
11:55 pm 23:55 Clear 43 6 23 -5 46 46 SSW 5 7 29.94 1014 10 16.0934 0 0

Powered by AerisWeather